User: anonymous   Login
Location: Potawatomi Wildlife Park
(41.2308°N, 86.1050°W)
Time: 20:14:12
(UTC-05:00)
Language:

SL-16 R/B - Orbit

View from above orbital plane
View from above orbital plane
View from above satellite
View from above satellite

Ground track
Ground track

The orbit data is extracted from the following two-line orbital elements,

1 27006U 01056F   17321.85417699 -.00000047  00000-0 -36283-5 0  9990
2 27006  99.3376  98.4833 0013803 269.5570 204.3350 13.70968441797551
Epoch (UTC): 17 November 2017 20:30:00
Eccentricity: 0.0013803
inclination: 99.3376°
perigee height: 986 km
apogee height: 1006 km
right ascension of ascending node: 98.4833°
argument of perigee: 269.5570°
revolutions per day: 13.70968441
mean anomaly at epoch: 204.3350°
orbit number at epoch: 79755

The dashed part of the orbit path shows where the satellite is in the earth's shadow,  

DLR